sat.trackr.live / text

‹ back to catalog

KUIPER-00236

NORAD 68582 · 2026-072K

PAYLOAD ACTIVE UNKNOWN

§ Identity

Operator
Country
US
Launch date
2026-04-04
Launch site
AFETR
Launch vehicle
Mass (kg)
RCS (m²)

External: N2YO · Heavens-Above · Gunter

§ Orbital elements

Epoch: 2026-09-20T00:00:02.998944Z

Period
97.52 min
Inclination
51.9025°
Eccentricity
0.0001437
Mean motion
14.76551518 rev/d
Perigee alt
639.2 km
Apogee alt
641.2 km
Semi-major
7,018.4 km
B*
4.2976e-3
RAAN
86.3259°
Arg perigee
201.4142°
Mean anomaly
67.4828°
Rev number
451

§ Raw data

KUIPER-002361 68582U 26072K   26263.00003471  .00030168  00000+0  42976-2 0  99972 68582  51.9025  86.3259 0001437 201.4142  67.4828 14.76551518  4513

JSON: /api/v1/satellites/68582 · /tle

For live sub-satellite position, see the globe view (requires WebGL).

§ Visibility from observer

Set your observer location to see the next 7 days of passes ≥ 10°. The values pass through the URL so the page stays shareable.

No JS? Fill the form by hand. The geolocation button needs JavaScript.